| time (UTC) | temp F | wind direction | speed MPH | gust MPH | rain 1hr in | rain 24hr in | rain mn in | humidity % | barometer mb |
| 20260906214518 | 41 | 0.0 | 0.0 | 0.00 | 0.00 | 0.00 | 10 | 1010.6 | |
| 20260906211523 | 42 | 0.0 | 0.0 | 0.00 | 0.00 | 0.00 | 10 | 1010.3 | |
| 20260906210023 | 43 | 0.0 | 0.0 | 0.00 | 0.00 | 0.00 | 10 | 1010.1 | |
| 20260906201517 | 43 | 0.0 | 0.0 | 0.00 | 0.00 | 0.00 | 10 | 1009.6 | |
| 20260906200033 | 44 | 0.0 | 0.0 | 0.00 | 0.00 | 0.00 | 10 | 1009.3 | |
| 20260906194528 | 44 | 0.0 | 0.0 | 0.00 | 0.00 | 0.00 | 10 | 1009.2 | |
| 20260906193024 | 45 | 0.0 | 0.0 | 0.00 | 0.00 | 0.00 | 10 | 1009.1 | |
| 20260906191523 | 46 | 0.0 | 0.0 | 0.00 | 0.00 | 0.00 | 10 | 1008.9 | |
| 20260906190018 | 47 | 0.0 | 0.0 | 0.00 | 0.00 | 0.00 | 10 | 1008.7 | |
| 20260906184517 | 46 | 0.0 | 0.0 | 0.00 | 0.00 | 0.00 | 10 | 1008.6 | |
| 20260906183019 | 46 | 0.0 | 0.0 | 0.00 | 0.00 | 0.00 | 10 | 1008.4 | |
| 20260906181528 | 47 | 0.0 | 0.0 | 0.00 | 0.00 | 0.00 | 10 | 1008.3 | |
| 20260906180028 | 47 | 0.0 | 0.0 | 0.00 | 0.00 | 0.00 | 10 | 1008.0 | |
| 20260906174523 | 48 | 0.0 | 0.0 | 0.00 | 0.00 | 0.00 | 10 | 1007.9 | |
| 20260906173018 | 50 | 0.0 | 0.0 | 0.00 | 0.00 | 0.00 | 98 | 1007.7 | |
| 20260906171518 | 52 | 0.0 | 0.0 | 0.00 | 0.00 | 0.00 | 94 | 1007.6 | |
| 20260906170018 | 52 | 0.0 | 0.0 | 0.00 | 0.00 | 0.00 | 92 | 1007.4 | |
| 20260906164518 | 53 | 0.0 | 0.0 | 0.00 | 0.00 | 0.00 | 88 | 1007.3 | |
| 20260906163017 | 55 | 0.0 | 0.0 | 0.00 | 0.00 | 0.00 | 84 | 1007.2 | |
| 20260906161517 | 56 | 0.0 | 0.0 | 0.00 | 0.00 | 0.00 | 81 | 1007.0 | |
| 20260906154523 | 58 | 0.0 | 0.0 | 0.00 | 0.00 | 0.00 | 78 | 1006.8 | |
| 20260906153018 | 58 | 0.0 | 0.0 | 0.00 | 0.00 | 0.00 | 78 | 1006.7 | |
| 20260906151518 | 59 | 0.0 | 0.0 | 0.00 | 0.00 | 0.00 | 79 | 1006.5 | |
| 20260906150018 | 59 | 0.0 | 0.0 | 0.00 | 0.00 | 0.00 | 80 | 1006.4 | |
| 20260906144518 | 60 | 0.0 | 0.0 | 0.00 | 0.00 | 0.00 | 80 | 1006.2 | |
| 20260906143027 | 60 | 0.0 | 0.0 | 0.00 | 0.00 | 0.00 | 80 | 1006.0 | |
| 20260906141523 | 61 | 0.0 | 0.0 | 0.00 | 0.00 | 0.00 | 82 | 1005.9 | |
| 20260906140018 | 61 | 0.0 | 0.0 | 0.00 | 0.00 | 0.00 | 83 | 1005.7 | |
| 20260906134517 | 61 | 0.0 | 0.0 | 0.00 | 0.00 | 0.00 | 85 | 1005.8 | |
| 20260906133018 | 61 | 0.0 | 0.0 | 0.00 | 0.00 | 0.00 | 87 | 1005.5 | |
| 20260906131517 | 61 | 0.0 | 0.0 | 0.00 | 0.00 | 0.00 | 88 | 1005.5 | |
| 20260906130027 | 61 | 0.0 | 0.0 | 0.00 | 0.00 | 0.00 | 91 | 1005.4 | |
| 20260906124528 | 61 | 0.0 | 0.0 | 0.00 | 0.00 | 0.00 | 94 | 1005.3 | |
| 20260906123018 | 60 | 0.0 | 0.0 | 0.00 | 0.00 | 0.00 | 96 | 1005.2 | |
| 20260906121517 | 59 | 0.0 | 0.0 | 0.00 | 0.00 | 0.00 | 98 | 1005.0 | |
| 20260906120018 | 58 | 0.0 | 0.0 | 0.00 | 0.00 | 0.00 | 10 | 1004.8 | |
| 20260906114517 | 58 | 0.0 | 0.0 | 0.00 | 0.00 | 0.00 | 10 | 1004.9 | |
| 20260906113018 | 57 | 0.0 | 0.0 | 0.00 | 0.00 | 0.00 | 10 | 1004.7 | |
| 20260906111517 | 57 | 0.0 | 0.0 | 0.00 | 0.00 | 0.00 | 10 | 1004.4 | |
| 20260906110023 | 57 | 0.0 | 0.0 | 0.00 | 0.00 | 0.00 | 10 | 1004.3 | |
| 20260906104522 | 57 | 0.0 | 0.0 | 0.00 | 0.00 | 0.00 | 10 | 1004.1 | |
| 20260906101518 | 56 | 0.0 | 0.0 | 0.00 | 0.00 | 0.00 | 10 | 1003.7 | |
| 20260906100018 | 56 | 0.0 | 0.0 | 0.00 | 0.00 | 0.00 | 10 | 1003.6 | |
| 20260906094517 | 55 | 0.0 | 0.0 | 0.00 | 0.00 | 0.00 | 10 | 1003.3 | |
| 20260906091522 | 55 | 0.0 | 0.0 | 0.00 | 0.00 | 0.00 | 10 | 1003.2 | |
| 20260906084518 | 54 | 0.0 | 0.0 | 0.00 | 0.00 | 0.00 | 10 | 1002.9 | |
| 20260906083019 | 53 | 0.0 | 0.0 | 0.00 | 0.00 | 0.00 | 10 | 1003.0 | |
| 20260906081518 | 53 | 0.0 | 0.0 | 0.00 | 0.00 | 0.00 | 10 | 1002.8 | |
| 20260906080018 | 53 | 0.0 | 0.0 | 0.00 | 0.00 | 0.00 | 10 | 1002.6 | |
| 20260906074518 | 54 | 0.0 | 0.0 | 0.00 | 0.00 | 0.00 | 10 | 1002.6 | |
| 20260906071517 | 53 | 0.0 | 0.0 | 0.00 | 0.00 | 0.00 | 10 | 1002.3 | |
| 20260906070018 | 52 | 0.0 | 0.0 | 0.00 | 0.00 | 0.00 | 10 | 1002.1 | |
| 20260906064517 | 51 | 0.0 | 0.0 | 0.00 | 0.00 | 0.00 | 10 | 1002.0 | |
| 20260906063018 | 50 | 0.0 | 0.0 | 0.00 | 0.00 | 0.00 | 10 | 1001.8 | |
| 20260906061517 | 50 | 0.0 | 0.0 | 0.00 | 0.00 | 0.00 | 10 | 1001.8 | |
| 20260906054518 | 49 | 0.0 | 0.0 | 0.00 | 0.00 | 0.00 | 10 | 1001.4 | |
| 20260906051518 | 48 | 0.0 | 0.0 | 0.00 | 0.00 | 0.00 | 10 | 1001.2 | |
| 20260906050018 | 48 | 0.0 | 0.0 | 0.00 | 0.00 | 0.00 | 10 | 1001.1 | |
| 20260906044518 | 48 | 0.0 | 0.0 | 0.00 | 0.00 | 0.00 | 10 | 1001.0 | |
| 20260906043018 | 48 | 0.0 | 0.0 | 0.00 | 0.00 | 0.00 | 10 | 1001.0 | |
| 20260906041523 | 48 | 0.0 | 0.0 | 0.00 | 0.00 | 0.00 | 10 | 1000.7 | |
| 20260906040019 | 48 | 0.0 | 0.0 | 0.00 | 0.00 | 0.00 | 10 | 1000.4 | |
| 20260906034518 | 48 | 0.0 | 0.0 | 0.00 | 0.00 | 0.00 | 10 | 1000.2 | |
| 20260906033017 | 48 | 0.0 | 0.0 | 0.00 | 0.00 | 0.00 | 10 | 1000.0 | |
| 20260906031518 | 48 | 0.0 | 0.0 | 0.00 | 0.00 | 0.00 | 10 | 999.8 | |
| 20260906030018 | 48 | 0.0 | 0.0 | 0.00 | 0.00 | 0.00 | 10 | 999.6 | |
| 20260906024518 | 47 | 0.0 | 0.0 | 0.00 | 0.00 | 0.00 | 10 | 999.4 | |
| 20260906023023 | 47 | 0.0 | 0.0 | 0.00 | 0.00 | 0.00 | 10 | 999.2 | |
| 20260906021518 | 47 | 0.0 | 0.0 | 0.00 | 0.00 | 0.00 | 10 | 999.1 | |
| 20260906020018 | 47 | 0.0 | 0.0 | 0.00 | 0.00 | 0.00 | 10 | 998.9 | |
| 20260906014518 | 47 | 0.0 | 0.0 | 0.00 | 0.00 | 0.00 | 10 | 998.7 | |
| 20260906013019 | 47 | 0.0 | 0.0 | 0.00 | 0.00 | 0.00 | 10 | 998.6 | |
| 20260906004523 | 47 | 0.0 | 0.0 | 0.00 | 0.00 | 0.00 | 10 | 998.3 | |
| 20260906003017 | 47 | 0.0 | 0.0 | 0.00 | 0.00 | 0.00 | 10 | 998.1 | |
| 20260906001517 | 47 | 0.0 | 0.0 | 0.00 | 0.00 | 0.00 | 10 | 997.9 | |
| 20260906000018 | 47 | 0.0 | 0.0 | 0.00 | 0.00 | 0.00 | 10 | 997.8 | |
| 20260905234518 | 47 | 0.0 | 0.0 | 0.00 | 0.00 | 0.00 | 10 | 997.6 | |
| 20260905233018 | 47 | 0.0 | 0.0 | 0.00 | 0.00 | 0.00 | 10 | 997.5 | |
| 20260905231518 | 48 | 0.0 | 0.0 | 0.00 | 0.00 | 0.00 | 10 | 997.3 | |
| 20260905230018 | 48 | 0.0 | 0.0 | 0.00 | 0.00 | 0.00 | 10 | 997.2 | |
| 20260905224517 | 48 | 0.0 | 0.0 | 0.00 | 0.00 | 0.00 | 10 | 997.1 | |
| 20260905223018 | 49 | 0.0 | 0.0 | 0.00 | 0.00 | 0.00 | 10 | 997.0 | |
| 20260905221518 | 49 | 0.0 | 0.0 | 0.00 | 0.00 | 0.00 | 10 | 996.8 | |
| 20260905220018 | 49 | 0.0 | 0.0 | 0.00 | 0.00 | 0.00 | 10 | 996.7 |